Content
SEND FEEDBACK

Daily
Averages
Monthly
Summary
United States of America

SOUTH LAKE TAHOE, CALIFORNIA


Home > North America > United States > California
Elevation: 6263 feet     Latitude: 38 53N     Longitude: 119 59W

WEATHER
 
SELECT A DAY
Number of Records: 174,603;   Date Range: 1/1/95 - 9/16/14
 
SHARE

PRINT THIS DATA

[ ← Previous Day ]
WEATHER ALMANAC - FEBRUARY 1, 2013
[ Next Day → ]
[ °C ]   °F
Weather ElementAverageHighLow
Temperature30.7 °F46.9 °F (2:53 pm)16 °F (6:53 am)
Dewpoint17.6 °F26.1 °F (3:53 pm)9 °F (6:53 am)
Humidity60.9 %77 % (7:53 am)30 % (10:53 am)
Barometer30.33 in30.41 in (7:53 pm)30.26 in (1:53 pm)
Wind Speed2.5 mph9.2 mph (12:53 pm)
Weather ElementAverage
Visibility10 mi
Wind DirectionENE (51.8 °)

Weather ElementTotal
Precipitation---
Heating Degree Days33.6 (Base 65)
Averaged from 22 records on February 1, 2013
WEATHER CONDITIONS BREAKOUT
WIND DIRECTION BREAKOUT
WEATHER BY HOUR - FEBRUARY 1, 2013
[ °C ]   °F
Local TimeTemperatureDewpointHumidityBarometerVisibilityWind DirectionWind SpeedGust SpeedPrecipitationEventsConditions
2:53 AM19.0 °F12.0 °F74 %30.30 in10.0 miSouth (190°)3.5 mphClear
3:53 AM18.0 °F10.9 °F74 %30.30 in10.0 miCalmClear
4:53 AM18.0 °F10.0 °F71 %30.31 in10.0 miCalmClear
5:53 AM17.1 °F10.0 °F74 %30.34 in10.0 miSouth (190°)3.5 mphClear
6:53 AM16.0 °F9.0 °F74 %30.37 in10.0 miSSW (200°)3.5 mphClear
7:53 AM16.0 °F10.0 °F77 %30.40 in10.0 miCalmClear
8:53 AM23.0 °F12.9 °F65 %30.40 in10.0 miCalmClear
9:53 AM32.0 °F14.0 °F48 %30.35 in10.0 miSouth (170°)3.5 mphClear
10:53 AM43.0 °F12.9 °F30 %30.32 in10.0 miENE (60°)3.5 mphClear
11:53 AM45.0 °F18.0 °F34 %30.30 in10.0 miNNE (30°)5.8 mphClear
12:53 PM44.1 °F21.9 °F42 %30.28 in10.0 miNNE (30°)9.2 mphClear
1:53 PM46.0 °F24.1 °F42 %30.26 in10.0 miNE (40°)8.1 mphClear
2:53 PM46.9 °F25.0 °F42 %30.26 in10.0 miNNE (30°)6.9 mphClear
3:53 PM46.0 °F26.1 °F46 %30.27 in10.0 miNorth (10°)3.5 mphClear
4:53 PM39.0 °F26.1 °F60 %30.30 in10.0 miCalmClear
5:53 PM35.1 °F24.1 °F64 %30.34 in10.0 miCalmClear
6:53 PM32.0 °F21.9 °F66 %30.38 in10.0 miCalmClear
7:53 PM30.0 °F21.0 °F69 %30.41 in10.0 miSouth (190°)3.5 mphClear
8:53 PM28.0 °F19.9 °F72 %30.40 in10.0 miCalmClear
9:53 PM28.0 °F19.9 °F72 %30.37 in10.0 miCalmClear
10:53 PM27.0 °F19.0 °F72 %30.34 in10.0 miCalmClear
11:53 PM26.1 °F18.0 °F71 %30.33 in10.0 miCalmClear
Hourly data recorded from KTVL, located miles away from South Lake Tahoe, California







STORIES FROM OUR PARTNERS